Flag for Brazil Weather past 2 weeks in Maceió, Alagoas, Brazil

Now
75 °F

Passing clouds.


Feels Like: 74 °F
Forecast: 76 / 88 °F
Wind: 2 mph from Northeast

Location: Maceio Aeroporto


UV Index: 7 (High)

Visibility: N/A


Pressure: 29.92 "Hg

Humidity: 94%

Dew point: 73 °F

Location of MaceióLocation

Historic Weather in Maceió

°F

Maceió temperature yesterday

Maximum temperature yesterday: 84 °F (at 12:00 PM)
Minimum temperature yesterday: 75 °F (at 12:00 AM)
Average temperature yesterday: 78 °F

Past Weeks' High & Low Weather Summary

 TemperatureHumidityPressure
High91 °F (Apr 5, 12:00 PM)100% (Apr 5, 5:00 AM)30.04 "Hg (Apr 5, 5:00 AM)
Low73 °F (Apr 3, 4:00 AM)22% (Apr 6, 4:00 AM)29.83 "Hg (Apr 8, 3:00 PM)
Average80 °F82%29.92 "Hg
* Reported Apr 2 10:00 PM — Apr 17 10:00 PM, Maceió, Weather by CustomWeather, © 2014

Note: Actual official high and low records may vary slightly from our data, if they occured in-between our weather recording intervals... More about our weather records

Advertising

Historic Weather Conditions — Data for Previous 24 hours

 ConditionsComfort  
Time TempWeatherWind HumidityBarometerVisibility
10:00 PM
Apr 17
75 °FPassing clouds.2 mph94%29.92 "HgN/A
9:00 PM75 °FPassing clouds.3 mph94%29.92 "HgN/A
8:00 PM77 °FPassing clouds.2 mph89%29.92 "HgN/A
7:00 PM77 °FPassing clouds.3 mph89%29.89 "HgN/A
6:00 PM79 °FPassing clouds.7 mph84%29.86 "HgN/A
5:00 PM82 °FPassing clouds.12 mph70%29.86 "HgN/A
4:00 PM86 °FPassing clouds.10 mph62%29.86 "HgN/A
3:00 PM86 °FScattered clouds.13 mph62%29.83 "HgN/A
2:00 PM88 °FScattered clouds.10 mph59%29.86 "HgN/A
1:00 PM88 °FScattered clouds.8 mph59%29.86 "HgN/A
12:00 PM86 °FScattered clouds.9 mph62%29.89 "HgN/A
11:00 AM86 °FScattered clouds.7 mph62%29.92 "HgN/A
10:00 AM86 °FScattered clouds.5 mph62%29.95 "HgN/A
9:00 AM82 °FScattered clouds.3 mph74%29.95 "HgN/A
8:00 AM77 °FScattered clouds.2 mph94%29.92 "HgN/A
7:00 AM75 °FScattered clouds.3 mph94%29.92 "HgN/A
6:00 AM73 °FPartly sunny.2 mph94%29.89 "HgN/A
5:00 AM73 °FPassing clouds.3 mph100%29.89 "HgN/A
4:00 AM75 °FPassing clouds.6 mph94%29.89 "HgN/A
3:00 AM75 °FPassing clouds.3 mph94%29.89 "HgN/A
2:00 AM75 °FPassing clouds.3 mph94%29.89 "HgN/A
1:00 AM75 °FPassing clouds.2 mph94%29.92 "HgN/A
12:00 AM75 °FPassing clouds.2 mph94%29.92 "HgN/A
11:00 PM
Apr 16
75 °FPassing clouds.2 mph94%29.95 "HgN/A
Weather by CustomWeather, © 2014

See weather overview